Regional Weather Roundup
Issued by NWS Charleston, WV

Home | Current Version | Previous Version | Text Only | Print | Product List | Glossary Off
Versions: 1 2 3 4 5 6 7 8 9 10 11 12 13 14 15 16 17 18 19 20 21 22 23 24 25 26 27 28 29 30 31 32 33 34 35 36 37 38 39 40 41 42 43 44 45 46 47 48 49 50

000
ASUS41 KRLX 310510
RWRRLX
West Virginia Regional Weather Roundup
National Weather Service Charleston WV
1200 AM EST SAT JAN 31 2015

Note: "fair" indicates few or no clouds below 12,000 feet with no
significant weather and/or obstructions to visibility.

WVZ003-310600-
Northern Panhandle of West Virginia

CITY           SKY/WX    TMP DP  RH WIND       PRES   REMARKS
WHEELING       CLEAR     10   4  76 W6        30.39S WCI   0
$$

WVZ009-310600-
Northwest West Virginia

CITY           SKY/WX    TMP DP  RH WIND       PRES   REMARKS
PARKERSBURG    CLEAR     14   8  77 CALM      30.47S
$$

WVZ006-310600-
Western West Virginia

CITY           SKY/WX    TMP DP  RH WIND       PRES   REMARKS
HUNTINGTON     CLEAR     20  12  71 CALM      30.44S
$$

WVZ015-310600-
West Central West Virginia

CITY           SKY/WX    TMP DP  RH WIND       PRES   REMARKS
CHARLESTON     CLEAR     20  12  71 CALM      30.43S
$$

WVZ022-031-310600-
North Central West Virginia

CITY           SKY/WX    TMP DP  RH WIND       PRES   REMARKS
CLARKSBURG     CLEAR     12   5  73 NW3       30.39F
MORGANTOWN     CLEAR     13   1  59 W5        30.39S WCI   5
$$

WVZ025-035-042-045-310600-
Southern West Virginia

CITY           SKY/WX    TMP DP  RH WIND       PRES   REMARKS
BECKLEY        CLEAR     13   7  77 NW6       30.30S WCI   4
LOGAN            N/A     19  12  73 CALM      30.38S
BLUEFIELD      CLEAR     17   9  70 W10       30.27F WCI   5
LEWISBURG      CLEAR     19   8  64 W3        30.28R
$$

WVZ047-310600-
Northern Mountains of West Virginia

CITY           SKY/WX    TMP DP  RH WIND       PRES   REMARKS
ELKINS         CLOUDY    13   8  81 NW8       30.33R WCI   2
$$

WVZ052-310600-
Eastern Panhandle of West Virginia

CITY           SKY/WX    TMP DP  RH WIND       PRES   REMARKS
MARTINSBURG    CLEAR     19   3  49 NW18G29   30.30S WCI   4
PETERSBURG     PTCLDY    20   3  48 N9        30.33F WCI   9
$$


USA.gov is the U.S. government's official web portal to all federal, state and local government web resources and services.